Regional Weather Roundup
Issued by NWS

Home | Current Version | Previous Version | Graphics & Text | Print | Product List | Glossary On
Versions: 1 2 3 4 5 6 7 8 9 10 11 12 13 14 15 16 17 18 19 20 21 22 23 24 25 26 27 28 29 30 31 32 33 34 35 36 37 38 39 40 41 42 43 44 45 46 47 48 49 50
000
ASUS45 KCYS 301110
RWRWY

WYOMING REGIONAL WEATHER ROUNDUP
NATIONAL WEATHER SERVICE CHEYENNE WY
500 AM MDT FRI SEP 30 2016

NOTE:  "FAIR" INDICATES FEW OR NO CLOUDS BELOW 12,000 FEET
WITH NO SIGNIFICANT WEATHER AND/OR OBSTRUCTIONS TO VISIBILITY.

WYZ001-301200-
YELLOWSTONE NATIONAL PARK

CITY           SKY/WX    TMP DP  RH WIND       PRES   REMARKS
LK YELLOWSTONE   N/A     34  34 100 CALM      30.35S
W YELLOWSTONE  NOT AVBL

$$
WYZ002>013-054>058-071-098>099-301200-
NORTHERN WYOMING

CITY           SKY/WX    TMP DP  RH WIND       PRES   REMARKS
JACKSON        CLOUDY    43  41  93 CALM      30.31S
CODY           FAIR      61  42  49 SW10      30.15S
GREYBULL       FAIR      54  51  90 E5        30.11S
WORLAND        FAIR      50  47  89 NE5       30.12R
SHERIDAN       FAIR      51  46  83 CALM      30.06R
BUFFALO        FAIR      58  42  55 W8        30.11S
GILLETTE       FAIR      61  50  67 S15       30.08S
HULETT         PTSUNNY   68  45  42 S12G20    30.10F
NEWCASTLE      FAIR      55  41  58 SE8       30.16R

$$
WYZ014>020-022>026-101>103-301200-
CENTRAL WYOMING

CITY           SKY/WX    TMP DP  RH WIND       PRES   REMARKS
BIG PINEY      FAIR      37  36  96 CALM      30.33S
PINEDALE       FAIR      34  34 100 NW3       30.34S
DUBOIS         FAIR      43  37  81 NW14      30.29R
LANDER         FAIR      52  44  74 CALM      30.20S
RIVERTON       FAIR      49  47  93 SW6       30.21S
CASPER         FAIR      59  49  69 SW13      30.20S
DOUGLAS        FAIR      52  44  74 SE5       30.19F

$$
WYZ021-027>030-104>119-301200-
SOUTHERN WYOMING

CITY           SKY/WX    TMP DP  RH WIND       PRES   REMARKS
EVANSTON       FAIR      49  40  71 S5        30.33S
FORT BRIDGER   FAIR      52  40  64 W5        30.35S
ROCK SPRINGS   CLOUDY    52  45  77 SE6       30.32R
DIXON          CLOUDY    56  47  73 S7        30.37R
RAWLINS        FAIR      52  45  77 SW8       30.31F
SARATOGA       LGT RAIN  50  50 100 E14       30.36S
LARAMIE        CLOUDY    51  44  77 W3        30.33S
CHEYENNE       MOCLDY    58  45  62 E3        30.25S
TORRINGTON     FAIR      49  41  74 E8        30.18S
PINE BLUFFS    FAIR      45  37  76 CALM      30.23S

$$



USA.gov is the U.S. government's official web portal to all federal, state and local government web resources and services.